Location: Beekmeers
(50.8953°N, 3.6968°E)
Time: 00:57:21
(UTC+00:00)

IRIDIUM 33 DEB - Visible Passes

Search period start: 12 October 2024 00:00
Search period end: 22 October 2024 00:00
Orbit: 660 x 830 km, 86.2° (Epoch: 09 October)

Date Brightness Start Highest point End Pass type
(mag) Time Alt. Az. Time Alt. Az. Time Alt. Az.
12 Oct ? 01:54:09 10° N 01:55:30 18° NNE 01:55:30 18° NNE visible
12 Oct ? 03:34:40 10° NNW 03:35:14 13° NNW 03:35:14 13° NNW visible
13 Oct ? 01:11:27 10° NNE 01:11:55 12° NNE 01:11:55 12° NNE visible
13 Oct ? 02:50:56 10° NNW 02:51:41 14° NNW 02:51:41 14° NNW visible
14 Oct ? 02:07:32 10° N 02:08:05 13° N 02:08:05 13° N visible
15 Oct ? 01:24:25 10° N 01:24:28 10° N 01:24:28 10° N visible
